Location: La Chapelle
(48.3135°N, 1.3085°W)
Time: 08:23:09
(UTC+00:00)

CSL-04 Rocket - Pass Details

Date: 03 March 2021
Orbit: 805 x 861 km, 98.9° (Epoch: 11 April)

Event Time Altitude Azimuth Distance (km) Brightness Sun altitude
Rises 18:22:42 0° 142° (SE) 3,426 6.5 -5.8°
Reaches altitude 10° 18:25:10 10° 135° (SE) 2,491 5.8 -6.2°
Maximum altitude 18:30:21 43° 66° (ENE) 1,187 4.1 -7.1°
Drops below altitude 10° 18:35:32 10° 357° (N) 2,484 6.2 -7.9°
Sets 18:37:59 0° 351° (N) 3,416 7.0 -8.3°
